Location: Unspecified
(0.0000°N, 0.0000°E)
Time: 21:22:51
(UTC+00:00)

Explorer 11/Cluster Stage 4 - All Passes

Search period start: 21 September 2017 00:00
Search period end: 01 October 2017 00:00
Orbit: 467 x 1262 km, 28.8° (Epoch: 20 September)

Date Brightness Start Highest point End Pass type
(mag) Time Alt. Az. Time Alt. Az. Time Alt. Az.
21 Sep - 03:02:23 10° SSW 03:04:57 17° SSE 03:07:43 10° ESE visible
21 Sep - 04:49:06 10° WSW 04:53:08 63° NNW 04:58:04 10° NE visible
21 Sep - 06:39:22 10° NW 06:42:14 15° NNW 06:45:24 10° NNE daylight
21 Sep - 13:59:51 10° NNW 14:06:22 25° NNE 14:12:38 10° ENE daylight
21 Sep - 15:48:03 10° NW 15:56:14 72° NNE 16:03:23 10° ESE daylight
21 Sep - 17:38:39 10° W 17:45:26 35° SSW 17:51:12 10° SSE daylight
22 Sep - 02:51:59 10° SSW 02:54:54 22° SSE 02:58:02 10° E visible
22 Sep - 04:39:17 10° WSW 04:43:06 46° NNW 04:47:40 10° NE visible
22 Sep - 06:30:43 10° NW 06:32:17 11° NNW 06:33:56 10° N daylight
22 Sep - 12:04:23 10° N 12:05:38 10° NNE 12:06:53 10° NNE daylight
22 Sep - 13:49:13 10° NNW 13:56:08 29° NNE 14:02:53 10° E daylight
22 Sep - 15:37:36 10° WNW 15:45:54 84° NNE 15:53:17 10° ESE daylight
22 Sep - 17:28:34 10° W 17:35:10 30° SSW 17:40:54 10° SSE daylight
23 Sep - 02:41:42 10° SSW 02:44:53 28° SSE 02:48:16 10° E visible
23 Sep - 04:29:34 10° W 04:33:07 33° NNW 04:37:13 10° NE visible
23 Sep - 11:52:54 10° N 11:55:34 12° NNE 11:58:18 10° NE daylight
23 Sep - 13:38:38 10° NNW 13:45:52 34° NNE 13:53:02 10° E daylight
23 Sep - 15:27:13 10° WNW 15:35:34 84° SSW 15:43:07 10° ESE daylight
23 Sep - 17:18:34 10° W 17:24:55 26° SSW 17:30:32 10° SSE daylight
24 Sep - 02:31:28 10° SW 02:34:51 38° SSE 02:38:25 10° E night (unlit)
24 Sep - 04:19:57 10° W 04:23:08 25° NNW 04:26:42 10° NNE visible
24 Sep - 11:41:57 10° N 11:45:29 13° NNE 11:49:08 10° NE daylight
24 Sep - 13:28:07 10° NW 13:35:34 40° NNE 13:43:05 10° E daylight
24 Sep - 15:16:54 10° WNW 15:25:12 73° SSW 15:32:53 10° SE daylight
24 Sep - 17:08:40 10° WSW 17:14:40 23° SSW 17:20:06 10° SSE daylight
25 Sep - 02:21:18 10° SW 02:24:50 53° SSE 02:28:29 10° ENE night (unlit)
25 Sep - 04:10:29 10° WNW 04:13:10 18° NNW 04:16:05 10° NNE visible
25 Sep - 11:31:11 10° N 11:35:21 15° NNE 11:39:43 10° ENE daylight
25 Sep - 13:17:39 10° NW 13:25:14 46° NNE 13:33:02 10° E daylight
25 Sep - 15:06:39 10° WNW 15:14:50 62° SSW 15:22:35 10° SE daylight
25 Sep - 16:58:51 10° WSW 17:04:26 20° SSW 17:09:36 10° SSE daylight
26 Sep - 00:25:41 10° SSE 00:26:24 10° SSE 00:27:06 10° SE night (unlit)
26 Sep - 02:11:12 10° SW 02:14:51 76° SSE 02:18:30 10° ENE night (unlit)
26 Sep - 04:01:16 10° WNW 04:03:12 14° NNW 04:05:15 10° N visible
26 Sep - 11:20:33 10° NNW 11:25:11 17° NNE 11:30:09 10° ENE daylight
26 Sep - 13:07:14 10° NW 13:14:53 54° NNE 13:22:55 10° ESE daylight
26 Sep - 14:56:28 10° WNW 15:04:28 54° SSW 15:12:14 10° SE daylight
26 Sep - 16:49:08 10° WSW 16:54:15 18° SSW 16:59:03 10° SSE daylight
27 Sep - 00:14:12 10° S 00:16:27 14° SSE 00:18:33 10° ESE night (unlit)
27 Sep - 02:01:09 10° WSW 02:04:51 75° NNW 02:08:27 10° NE night (unlit)
27 Sep - 11:10:00 10° NNW 11:14:59 20° NNE 11:20:26 10° ENE daylight
27 Sep - 12:56:54 10° NW 13:04:31 62° NNE 13:12:43 10° ESE daylight
27 Sep - 14:46:22 10° W 14:54:07 46° SSW 15:01:49 10° SE daylight
27 Sep - 16:39:33 10° WSW 16:44:05 16° SSW 16:48:25 10° S daylight
28 Sep - 00:03:24 10° SSW 00:06:29 19° SSE 00:09:17 10° ESE night (unlit)
28 Sep - 01:51:08 10° WSW 01:54:51 52° NNW 01:58:21 10° NE night (unlit)
28 Sep - 10:59:30 10° NNW 11:04:45 23° NNE 11:10:37 10° ENE daylight
28 Sep - 12:46:37 10° NW 12:54:09 73° NNE 13:02:27 10° ESE daylight
28 Sep - 14:36:20 10° W 14:43:48 40° SSW 14:51:20 10° SE daylight
28 Sep - 16:30:08 10° SW 16:33:57 14° SSW 16:37:40 10° S daylight
28 Sep - 23:52:47 10° SSW 23:56:31 26° SSE 23:59:48 10° E night (unlit)
29 Sep - 01:41:12 10° W 01:44:49 38° NNW 01:48:12 10° NE night (unlit)
29 Sep - 10:49:05 10° NNW 10:54:31 26° NNE 11:00:42 10° E daylight
29 Sep - 12:36:24 10° WNW 12:43:48 84° NNE 12:52:07 10° ESE daylight
29 Sep - 14:26:24 10° W 14:33:30 34° SSW 14:40:47 10° SE daylight
29 Sep - 16:20:55 10° SW 16:23:51 12° SSW 16:26:44 10° S daylight
29 Sep - 23:42:15 10° SW 23:46:32 35° SSE 23:50:10 10° E night (unlit)
30 Sep - 01:31:20 10° W 01:34:48 28° NNW 01:37:59 10° NNE night (unlit)
30 Sep - 10:38:43 10° NNW 10:44:16 29° NNE 10:50:42 10° E daylight
30 Sep - 12:26:15 10° WNW 12:33:27 84° SSW 12:41:44 10° ESE daylight
30 Sep - 14:16:33 10° W 14:23:14 29° SSW 14:30:11 10° SSE daylight
30 Sep - 16:12:13 10° SSW 16:13:47 11° SSW 16:15:22 10° S daylight
30 Sep - 21:45:10 10° S 21:47:19 12° SSE 21:49:18 10° SE night (unlit)
30 Sep - 23:31:47 10° SW 23:36:32 47° SSE 23:40:27 10° ENE night (unlit)
